Погода в Столбище

Россия / Республика Татарстан     55°38′33″N   49°13′02″E
В апреле 2022 года жителям России запретили посещать сайт meteo.paraplan.net по решению Генеральной прокуратуры. Аудитория сайта уменьшилась в 10 раз. Владельцы сайта не видят смысла в поддержке погодного сервера в таких условиях. Сайт будет закрыт в октябре.
темп.,
°C
ветер,
м/с
пор.,
м/с
влажн.,
%
обл.,
%
осадки,
мм/ч
давл.,
гПа
погр.,
м
29 сентября, чт
чт2900:00+5вюв91795100 2.3 1011519
03:00+6вюв71496100 3.6 1011525
06:00+7вюв61397100 0.7 1010486
09:00+9вюв61195100 1.1 1010525
12:00+9вюв51096100 2.4 1010476
15:00+9вюв51096100 2.5 1012390
18:00+9вюв4996100 0.0 1013353
21:00+8в4795100 0.1 1016273
30 сентября, пт
пт3000:00+7в3594100 0.1 1017211
03:00+7всв3494100 0.2 1019198
06:00+7в3493100 0.1 1021207
09:00+8в2388100 0.1 1022267
12:00+9в3383100 0.0 1023388
15:00+11в3479100 0.0 1023451
18:00+8вюв35928 0.0 102593
21:00+7вюв369458 0.0 1025112
1 октября, сб
сб100:00+7вюв3594100 0.0 102494
03:00+7юв3495100 0.0 102481
06:00+7юв3695100 0.0 1024140
09:00+11ююв577813 0.0 1024423
12:00+14ю566673 0.0 1022748
15:00+14ююв566567 0.0 1021733
18:00+11юв4982100 0.0 1021225
21:00+12ююв51178100 0.0 1019338
2 октября, вс
вс200:00+11ююв51186100 0.3 1018367
03:00+11ююв61390100 3.3 1016369
06:00+11ю6129190 0.1 1016352
09:00+13ю61386100 0.1 1015425
12:00+16ю71477100 0.0 1013605
15:00+16ю61279100 0.4 1012732
18:00+14ююз51292100 2.9 1011470
21:00+14ю489973 10.7 1011251
3 октября, пн
пн300:00+13юз249893 1.7 101197
03:00+12зсз22979 1.7 101242
06:00+12ю4108789 0.2 1014256
09:00+14ю4989100 0.6 1015357
12:00+15ююв5983100 0.0 1015353
15:00+19ю5106649 0.0 1016699
18:00+15ююв41273100 0.0 1017257
21:00+14ююв51465100 0.0 1019341